Weather History for Meadville, PA

Change the Weather History Date:

Saturday, December 8, 2012

  Actual Average Record
Temperature  
Mean Temperature 43 °F -  
Max Temperature 50 °F 38 °F 59 °F (1951)
Min Temperature 36 °F 26 °F 5 °F (1977)
Degree Days  
Heating Degree Days 22    
Moisture  
Dew Point 43 °F    
Average Humidity 91    
Maximum Humidity 100    
Minimum Humidity 81    
Precipitation  
Precipitation 0.07 in - - ()
Sea Level Pressure  
Sea Level Pressure 29.88 in    
Wind  
Wind Speed 4 mph (West)    
Max Wind Speed 12 mph    
Max Gust Speed 20 mph    
Visibility 5 miles    
Events Fog , Rain    
Averages and records for this station are not official NWS values.
T = Trace of Precipitation, MM = Missing Value Source: NWS Daily Summary

Daily Weather History Graph

Daily Weather History Graph

Search for Another Location

Airport:

Trip Planner

Search our weather history database for the weather conditions in past years. The results will help you decide how hot, cold, wet, or windy it might be!

Date:

Astronomy

Dec. 08, 2012 Rise Set
Actual Time 7:35 AM EST 4:50 PM EST
Civil Twilight 7:04 AM EST 5:21 PM EST
Nautical Twilight 6:29 AM EST 5:56 PM EST
Astronomical Twilight 5:55 AM EST 6:30 PM EST
Moon 1:54 AM EST (12/8) 1:22 PM EST (12/8)
Length of Visible Light 10h 17m
Length of Day
9h 15m
Waning Crescent, 28% of the Moon is Illuminated
Dec 8
Waning Crescent
Dec 13
New
Dec 20
First Quarter
Dec 28
Full
Jan 4
Last Quarter

Hourly Weather History & Observations

Time (EST) Temp. Windchill Dew Point Humidity Pressure Visibility Wind Dir Wind Speed Gust Speed Precip Events Conditions
12:40 AM 44.6 °F - 42.8 °F 93% 29.86 in 2.5 mi Calm Calm - 0.03 in Rain Light Rain
12:53 AM 45.0 °F - 43.0 °F 93% 29.87 in 2.5 mi Calm Calm - 0.04 in Rain Light Rain
1:10 AM 44.6 °F 43.1 °F 42.8 °F 93% 29.84 in 1.5 mi East 3.5 mph - 0.00 in Rain Light Rain
1:42 AM 44.6 °F - 42.8 °F 93% 29.83 in 1.0 mi Calm Calm - 0.01 in Rain Light Rain
1:53 AM 45.0 °F - 43.0 °F 93% 29.85 in 1.0 mi Calm Calm - 0.01 in Rain Light Rain
2:26 AM 44.6 °F - 42.8 °F 93% 29.83 in 1.5 mi Calm Calm - 0.01 in Rain Light Rain
2:36 AM 44.6 °F - 42.8 °F 93% 29.83 in 1.0 mi Calm Calm - 0.02 in Rain Light Rain
2:43 AM 44.6 °F - 44.6 °F 100% 29.83 in 1.2 mi Calm Calm - 0.02 in Rain Light Rain
2:51 AM 44.6 °F - 44.6 °F 100% 29.83 in 2.0 mi Calm Calm - 0.02 in Rain Light Rain
2:53 AM 45.0 °F - 44.1 °F 97% 29.84 in 2.5 mi Calm Calm - 0.02 in Rain Light Rain
3:00 AM 46.4 °F - 44.6 °F 93% 29.82 in 4.0 mi Calm Calm - 0.00 in Rain Light Rain
3:30 AM 46.4 °F - 44.6 °F 93% 29.82 in 4.0 mi Calm Calm - 0.00 in   Overcast
3:53 AM 46.0 °F - 45.0 °F 96% 29.82 in 2.5 mi Calm Calm - 0.00 in   Overcast
4:10 AM 46.4 °F - 44.6 °F 93% 29.80 in 4.0 mi Calm Calm - N/A   Overcast
4:32 AM 46.4 °F - 44.6 °F 93% 29.79 in 2.5 mi Calm Calm - N/A   Overcast
4:53 AM 46.0 °F - 45.0 °F 96% 29.81 in 1.5 mi Calm Calm - N/A   Overcast
5:28 AM 46.4 °F - 44.6 °F 93% 29.78 in 2.5 mi Calm Calm - 0.02 in   Overcast
5:43 AM 46.4 °F - 44.6 °F 93% 29.78 in 1.5 mi Calm Calm - 0.03 in   Overcast
6:02 AM 46.4 °F 45.2 °F 44.6 °F 93% 29.78 in 2.0 mi Variable 3.5 mph - N/A   Overcast
6:20 AM 46.4 °F 44.3 °F 46.4 °F 100% 29.78 in 1.5 mi South 4.6 mph - N/A   Overcast
6:35 AM 46.4 °F 43.5 °F 46.4 °F 100% 29.79 in 0.5 mi Variable 5.8 mph - N/A Fog Fog
6:44 AM 46.4 °F 42.4 °F 46.4 °F 100% 29.79 in 0.2 mi SSW 8.1 mph - N/A Fog Fog
6:53 AM 48.0 °F - 46.0 °F 93% 29.80 in 0.2 mi SSW 9.2 mph - N/A Fog Fog
7:02 AM 48.2 °F - 46.4 °F 93% 29.79 in 0.8 mi Variable 6.9 mph - N/A   Mist
7:09 AM 48.2 °F - 46.4 °F 93% 29.79 in 1.8 mi SW 8.1 mph - N/A   Overcast
7:21 AM 48.2 °F - 46.4 °F 93% 29.79 in 2.0 mi SW 8.1 mph - N/A   Overcast
7:36 AM 48.2 °F - 46.4 °F 93% 29.78 in 4.0 mi SSW 9.2 mph - N/A   Overcast
7:53 AM 48.9 °F - 46.9 °F 93% 29.80 in 5.0 mi SW 6.9 mph - N/A   Overcast
8:18 AM 48.2 °F - 46.4 °F 93% 29.78 in 6.0 mi SSW 10.4 mph 18.4 mph N/A   Overcast
8:53 AM 50.0 °F - 46.9 °F 89% 29.80 in 6.0 mi SW 9.2 mph 17.3 mph N/A   Overcast
9:21 AM 50.0 °F - 46.4 °F 87% 29.81 in 6.0 mi SW 8.1 mph - N/A   Overcast
9:53 AM 50.0 °F - 46.0 °F 86% 29.83 in 10.0 mi SW 9.2 mph - N/A   Overcast
10:12 AM 50.0 °F - 44.6 °F 82% 29.82 in 10.0 mi SW 10.4 mph - N/A   Overcast
10:53 AM 50.0 °F - 46.0 °F 86% 29.83 in 9.0 mi SW 8.1 mph - N/A   Overcast
11:53 AM 50.0 °F - 45.0 °F 83% 29.83 in 8.0 mi WSW 9.2 mph 19.6 mph N/A   Overcast
12:51 PM 48.2 °F - 46.4 °F 93% 29.82 in 7.0 mi West 11.5 mph - N/A   Overcast
12:53 PM 48.9 °F - 46.0 °F 90% 29.83 in 7.0 mi West 11.5 mph - N/A   Overcast
1:14 PM 48.2 °F - 44.6 °F 87% 29.82 in 8.0 mi WSW 10.4 mph - N/A   Overcast
1:53 PM 48.9 °F - 45.0 °F 86% 29.83 in 9.0 mi WSW 9.2 mph 18.4 mph N/A   Overcast
2:32 PM 50.0 °F - 44.6 °F 82% 29.83 in 10.0 mi WSW 10.4 mph - N/A   Overcast
2:42 PM 48.2 °F - 44.6 °F 87% 29.84 in 10.0 mi West 11.5 mph - N/A   Overcast
2:53 PM 48.9 °F - 45.0 °F 86% 29.85 in 10.0 mi West 5.8 mph - N/A   Overcast
3:29 PM 48.2 °F - 44.6 °F 87% 29.86 in 10.0 mi West 8.1 mph - N/A   Overcast
3:38 PM 48.2 °F - 44.6 °F 87% 29.87 in 9.0 mi West 9.2 mph - N/A   Overcast
3:53 PM 46.9 °F - 44.1 °F 90% 29.89 in 8.0 mi West 8.1 mph - N/A   Overcast
4:53 PM 45.0 °F 39.3 °F 42.1 °F 90% 29.94 in 9.0 mi West 11.5 mph - N/A   Overcast
5:15 PM 42.8 °F 38.0 °F 41.0 °F 93% 29.93 in 5.0 mi WNW 8.1 mph - N/A   Overcast
5:28 PM 42.8 °F 37.0 °F 41.0 °F 93% 29.94 in 2.5 mi NW 10.4 mph - N/A   Overcast
5:38 PM 42.8 °F 38.0 °F 39.2 °F 87% 29.95 in 1.2 mi NW 8.1 mph - N/A   Overcast
5:53 PM 41.0 °F 35.2 °F 39.0 °F 93% 29.98 in 1.2 mi NW 9.2 mph 19.6 mph N/A   Overcast
6:07 PM 39.2 °F 33.6 °F 39.2 °F 100% 29.97 in 3.0 mi NW 8.1 mph 16.1 mph N/A   Overcast
6:53 PM 39.9 °F 35.1 °F 37.9 °F 93% 30.01 in 2.5 mi NNW 6.9 mph - N/A   Overcast
7:13 PM 39.2 °F 33.0 °F 37.4 °F 93% 30.01 in 3.0 mi NW 9.2 mph - N/A   Overcast
7:31 PM 39.2 °F 34.2 °F 37.4 °F 93% 30.02 in 10.0 mi NNW 6.9 mph - N/A   Overcast
7:46 PM 39.2 °F 33.6 °F 37.4 °F 93% 30.03 in 10.0 mi NNW 8.1 mph - N/A   Overcast
7:53 PM 39.0 °F 33.4 °F 36.0 °F 89% 30.05 in 10.0 mi NNW 8.1 mph - N/A   Overcast
8:53 PM 37.9 °F 31.5 °F 34.0 °F 86% 30.07 in 10.0 mi North 9.2 mph - N/A   Overcast
9:20 PM 37.4 °F 32.1 °F 33.8 °F 87% 30.07 in 10.0 mi North 6.9 mph - N/A   Overcast
9:41 PM 37.4 °F 32.1 °F 33.8 °F 87% 30.08 in 10.0 mi North 6.9 mph - N/A   Overcast
9:53 PM 37.0 °F 31.0 °F 33.1 °F 86% 30.10 in 10.0 mi NNW 8.1 mph - N/A   Overcast
10:04 PM 37.4 °F 32.8 °F 32.0 °F 81% 30.09 in 10.0 mi North 5.8 mph - N/A   Overcast
10:53 PM 36.0 °F 32.1 °F 32.0 °F 86% 30.13 in 10.0 mi North 4.6 mph - N/A   Overcast
11:53 PM 36.0 °F 31.1 °F 30.9 °F 82% 30.13 in 10.0 mi North 5.8 mph - N/A   Overcast